Theta_e
349 349 349 349 348 347 347 345 345 345 347 348 349 349 349 348 349 349 351 349 349 350 351 351 351 350 347 348 346 346 344 345 345 344 344 344 343 344 343 342 341 340 342 345 346 345 344 343 342 342 343 341 342 340 344 344 343 342 342 342 342 342
348 348 348 347 348 348 346 345 346 347 349 350 349 349 351 350 350 352 348 350 349 347 347 348 349 346 349 348 349 345 346 345 345 345 345 344 344 344 344 343 341 339 337 341 345 348 346 343 343 342 342 343 342 343 344 345 344 342 341 342 342 342
348 347 346 346 347 346 347 347 346 346 345 347 348 349 347 349 349 349 347 346 346 347 346 347 348 348 348 344 350 346 346 345 345 344 345 345 345 343 344 343 340 339 338 338 345 344 346 346 345 343 343 344 343 343 346 345 345 344 342 342 341 340
348 347 346 344 346 346 345 346 345 346 346 347 347 346 347 347 347 348 345 347 345 346 346 347 340 342 346 348 347 347 346 346 345 345 344 346 342 343 343 341 341 338 341 340 343 342 341 344 344 346 345 345 343 343 345 345 342 344 344 339 340 340
347 346 345 344 345 344 345 343 343 344 344 345 344 344 344 345 345 346 346 345 345 344 343 345 346 345 344 345 343 343 349 347 347 347 344 346 346 344 346 342 339 341 341 341 340 342 342 343 346 345 345 344 343 344 344 344 342 342 344 345 344 340
345 344 343 343 343 344 343 342 344 342 343 345 344 344 345 345 345 346 344 345 345 347 348 348 347 347 346 346 344 342 343 344 345 346 346 346 344 346 344 339 339 338 339 342 342 342 342 342 343 343 343 344 344 344 343 341 343 343 346 345 346 339
343 343 343 343 343 342 342 343 344 344 342 343 344 342 343 343 345 345 344 345 346 345 346 346 347 347 347 348 346 345 344 345 345 345 344 345 345 344 343 341 340 340 339 339 340 340 341 341 342 339 342 342 343 342 343 342 343 343 345 344 344 339
343 342 342 343 342 341 342 343 344 344 343 342 342 343 343 343 346 344 346 347 348 346 345 344 346 346 346 347 347 349 350 347 347 348 348 345 344 343 341 341 344 342 337 335 336 341 340 339 340 341 338 340 342 343 343 344 345 345 345 346 344 341
343 342 342 343 342 341 342 343 344 343 342 343 343 344 344 345 345 344 346 347 347 346 345 346 347 349 350 351 352 352 350 349 349 348 349 348 347 344 342 341 342 341 342 339 337 340 340 340 341 341 339 339 340 340 341 343 345 344 345 345 346 342
342 339 341 342 342 342 342 342 343 343 344 344 343 344 346 344 345 345 344 346 346 346 347 346 348 349 347 349 351 352 351 350 348 348 349 348 349 349 345 341 340 340 338 341 338 339 339 340 340 341 341 340 340 340 340 341 343 344 346 346 347 344
343 344 343 341 342 343 343 342 343 344 345 344 345 346 346 346 347 347 347 347 348 349 348 347 347 348 346 347 348 349 350 350 348 348 350 348 350 349 349 348 344 340 341 341 341 340 340 338 337 338 342 340 341 343 341 340 340 341 344 346 346 347
343 345 344 342 343 342 342 343 345 345 345 346 349 349 349 350 349 349 348 347 348 348 346 347 346 345 345 344 345 345 348 349 349 349 351 349 349 350 348 345 347 349 346 343 340 340 343 339 337 335 337 338 341 341 340 340 340 340 341 345 346 347
345 345 344 343 342 343 344 344 345 346 348 349 350 350 349 349 350 348 347 346 347 346 346 346 346 345 344 344 345 346 347 349 349 350 350 350 349 349 348 347 347 348 347 347 342 340 338 340 339 338 338 338 341 340 340 339 339 340 340 343 345 345
346 344 345 344 344 345 347 347 348 349 349 349 350 349 348 348 347 346 346 347 346 346 346 346 346 345 344 344 345 346 347 347 348 349 350 350 347 347 346 346 345 344 343 343 342 343 340 338 337 338 339 339 339 341 341 337 337 338 340 339 344 346
348 345 345 346 347 347 348 348 348 348 348 349 349 348 347 345 345 345 346 346 346 346 346 346 345 346 344 343 344 344 343 343 346 347 347 348 347 346 346 346 344 343 343 342 341 342 343 342 337 336 337 339 339 340 342 339 337 336 335 335 341 343
348 347 347 347 347 347 348 349 349 346 348 347 346 347 346 345 346 346 347 346 346 346 346 346 346 346 345 345 344 344 344 346 345 346 346 345 345 344 343 343 345 345 342 340 340 340 342 341 342 342 342 340 340 339 338 339 339 338 337 336 336 342
346 347 347 348 348 347 348 348 349 347 345 345 344 345 345 346 346 346 347 345 346 347 346 346 347 347 347 346 344 346 346 346 346 345 344 344 342 342 342 341 341 342 342 339 341 341 341 341 340 340 341 343 342 338 335 336 338 339 339 337 338 340
346 347 348 347 346 346 347 348 347 345 346 345 345 345 346 347 346 346 346 346 346 347 347 348 347 346 346 346 345 345 345 346 345 344 343 343 342 343 342 341 340 341 340 340 338 338 339 340 340 340 339 340 341 341 341 342 340 336 337 336 337 340
344 345 345 345 346 348 347 348 346 345 345 345 346 345 346 345 346 346 345 347 346 348 346 347 346 346 347 346 345 346 346 346 345 344 343 341 342 342 342 341 340 339 341 341 340 340 339 338 338 339 340 339 338 340 342 343 342 341 339 338 336 338
340 344 345 342 346 345 345 343 341 344 343 344 345 344 346 346 346 345 346 346 346 347 345 346 346 347 346 346 345 345 348 348 347 344 342 341 339 339 340 339 339 339 339 339 340 341 342 340 340 341 339 339 340 341 342 341 341 341 341 340 338 338
340 343 345 342 345 344 342 340 341 341 341 343 342 345 344 345 344 345 345 345 345 346 346 345 345 346 347 345 345 346 348 345 344 342 341 343 341 340 340 341 340 340 338 336 339 342 341 340 336 335 338 339 337 341 342 340 339 339 340 339 339 338
341 341 345 345 344 343 343 341 341 341 340 341 341 340 341 343 344 344 345 344 345 345 345 345 344 345 346 346 344 344 346 345 342 343 343 342 342 340 340 340 341 337 339 338 338 340 338 337 333 331 330 330 332 336 340 340 337 336 338 339 340 340
343 343 344 345 343 342 343 344 343 342 341 340 343 344 342 343 344 343 344 343 343 343 343 343 343 344 344 343 343 342 342 342 342 341 340 340 339 338 341 343 341 335 336 338 338 340 339 339 331 331 332 329 326 327 333 336 338 338 338 339 339 339
342 344 344 344 342 344 344 345 345 344 344 342 339 341 343 341 341 341 340 341 341 341 340 340 340 339 340 341 341 341 341 341 341 341 340 338 339 338 338 338 341 339 338 332 333 335 339 338 335 331 324 325 326 327 321 326 331 333 339 340 339 338
343 342 343 344 343 344 343 343 342 342 342 341 341 340 338 337 337 337 338 339 339 339 338 338 338 337 337 338 338 339 339 340 340 340 340 338 337 337 338 340 339 338 336 333 331 335 336 338 337 336 330 324 322 322 324 328 326 329 337 335 339 338
342 342 342 344 344 343 342 340 338 337 335 335 333 333 333 333 334 334 334 338 339 337 336 337 336 336 336 336 337 337 338 337 337 337 338 337 337 337 338 336 337 337 335 336 333 333 334 336 337 337 336 332 327 323 323 327 327 323 334 337 338 338
342 341 342 343 343 342 341 340 338 337 337 335 332 333 335 335 335 335 337 336 336 337 335 335 335 334 334 335 336 337 337 336 337 337 336 337 336 337 336 337 337 336 336 335 335 331 332 332 335 336 336 335 334 333 333 326 322 326 323 331 335 335
339 339 341 341 341 342 339 339 338 337 336 334 333 333 334 334 336 336 334 334 335 333 333 332 332 332 332 332 333 334 334 335 334 335 335 335 335 336 336 337 338 338 336 335 334 332 332 334 331 331 335 335 335 335 333 332 330 326 324 321 325 334
339 339 340 341 340 340 340 338 337 335 333 333 333 333 333 334 334 334 333 332 332 331 331 331 329 330 331 331 331 332 332 332 333 333 333 334 334 334 335 335 335 335 334 334 334 334 333 332 333 330 331 332 334 332 332 333 332 331 325 322 322 326
335 336 337 338 338 338 338 337 334 334 332 332 332 332 333 332 332 333 330 329 329 328 328 329 329 328 329 329 329 329 328 329 330 330 330 331 332 332 332 333 333 333 334 334 334 334 332 332 335 336 335 333 331 331 332 330 329 328 327 328 323 324
333 334 335 335 334 333 333 333 332 332 331 331 331 331 330 329 329 329 328 327 327 327 326 326 327 327 327 327 328 327 327 327 328 328 327 327 328 328 329 330 331 331 332 332 333 333 334 334 333 333 334 333 330 328 329 327 328 328 326 325 324 325
328 330 332 331 331 331 330 331 332 331 329 329 328 328 328 326 326 326 324 323 324 324 324 324 324 324 323 324 325 324 325 325 324 326 325 326 327 326 327 328 328 328 329 330 331 329 330 331 333 332 334 332 332 332 331 331 331 331 328 326 325 324
325 327 328 329 329 330 329 328 327 327 327 327 326 326 325 324 324 323 322 321 321 321 321 321 320 320 321 323 323 322 321 321 322 323 322 323 324 325 324 325 326 327 326 326 326 327 326 328 329 327 328 331 331 332 331 333 332 332 332 332 330 325
325 326 326 326 327 326 326 325 325 325 325 324 323 323 322 321 321 321 321 320 320 319 319 320 319 319 319 321 321 321 321 320 321 321 320 321 322 323 323 322 324 323 324 325 325 325 325 327 327 327 327 326 328 330 331 332 332 332 331 330 328 327
324 324 325 325 325 324 323 323 323 322 322 322 321 320 319 319 319 319 320 319 319 319 319 319 318 319 319 320 320 320 319 318 319 319 319 320 319 320 320 320 321 321 321 322 322 322 323 324 324 325 325 324 325 326 328 331 332 331 332 331 330 328
323 323 323 323 323 322 321 321 320 319 319 319 319 319 318 318 318 318 318 318 317 318 318 318 319 318 318 318 318 318 318 317 317 316 317 316 316 316 316 317 317 317 317 318 317 318 320 322 322 323 323 323 323 323 325 326 328 330 331 331 330 331
322 321 321 320 319 319 319 318 317 317 317 317 317 316 315 316 317 318 318 317 316 316 317 317 316 317 317 317 316 316 315 315 314 315 314 314 314 314 314 315 314 314 314 314 314 315 316 317 318 319 320 321 321 322 324 326 325 326 328 330 330 330
Wind_Speed
10 11 10 9 9 10 11 11 10 10 10 11 12 12 12 11 11 11 10 7 7 6 6 5 8 7 10 7 8 7 7 7 7 7 8 8 8 8 9 7 6 5 4 5 7 9 9 8 7 6 5 5 7 9 1 1 0 1 1 3 2 7
9 10 10 8 7 8 9 9 9 9 9 10 10 10 10 8 9 8 8 7 4 3 2 3 4 4 4 6 8 7 6 6 7 7 7 7 7 8 8 8 5 4 3 3 11 7 7 8 7 7 6 6 8 2 1 0 2 1 0 3 1 10
10 10 9 8 8 8 9 7 9 9 8 9 9 8 7 7 6 6 5 4 3 3 2 3 3 4 3 7 7 5 6 6 6 6 7 7 7 7 7 7 6 4 3 6 10 4 5 6 7 8 7 7 6 1 0 1 1 1 1 4 1 13
10 10 8 7 7 8 7 7 7 7 7 7 7 6 6 5 5 5 5 4 3 3 3 2 4 4 5 5 8 8 6 7 8 7 4 6 8 7 8 7 7 7 8 8 5 4 4 4 5 6 6 5 4 2 3 3 2 0 3 2 3 11
8 8 7 7 7 6 7 6 6 6 6 6 6 5 5 5 4 4 4 4 4 3 3 3 3 3 1 2 2 4 7 5 4 4 7 2 4 7 9 7 7 8 6 5 4 3 2 3 3 4 4 4 3 2 3 2 2 2 1 1 6 10
8 8 7 7 6 7 6 6 6 6 6 6 6 5 5 5 5 5 4 5 4 5 4 3 3 3 3 2 3 3 2 2 2 2 3 3 2 2 3 3 4 4 5 5 4 3 4 3 4 4 3 3 3 3 4 3 2 2 2 2 8 11
8 7 7 6 7 6 6 6 6 6 6 6 6 6 5 5 5 5 5 5 5 4 3 3 3 3 2 2 1 1 2 3 3 3 2 3 2 2 3 2 3 3 3 5 5 5 5 5 4 4 5 4 4 4 3 4 3 3 3 3 7 12
8 8 7 7 7 6 6 6 7 6 5 6 5 5 5 4 5 5 5 4 3 2 2 2 2 2 2 1 1 1 0 1 1 0 1 2 2 2 3 3 2 3 4 5 6 6 5 5 4 4 5 4 5 5 4 4 3 4 4 3 3 12
8 8 7 7 7 6 6 6 7 6 6 6 5 5 5 5 5 5 4 4 2 1 1 1 1 1 1 1 1 1 0 1 0 0 1 2 2 2 3 3 3 4 4 4 4 5 6 6 5 5 5 5 5 4 5 5 5 4 5 4 5 9
8 7 7 7 6 6 7 7 6 6 7 6 6 5 6 5 4 4 4 3 2 1 0 0 0 1 1 1 1 1 1 1 1 1 2 3 2 2 2 2 4 5 5 4 5 5 5 6 7 6 6 6 6 5 4 5 5 5 5 5 5 4
8 7 7 7 7 7 7 7 7 7 7 6 6 6 5 4 4 3 3 3 3 2 0 0 1 1 1 0 1 1 1 1 1 1 1 1 2 2 2 3 3 4 4 5 4 4 5 6 7 8 7 7 7 5 5 5 5 6 6 6 5 5
8 8 7 8 8 8 8 7 7 6 6 6 5 4 3 3 2 3 3 3 2 2 2 1 1 1 1 0 1 1 1 1 0 1 1 1 2 2 3 3 4 3 4 5 6 5 5 6 6 8 8 8 6 5 5 4 4 6 6 7 7 6
10 9 9 9 8 8 7 7 7 5 5 4 3 3 2 2 2 2 3 3 2 3 2 2 2 1 1 1 1 0 0 1 1 0 0 1 2 3 3 3 4 4 5 5 5 6 7 6 6 7 7 7 5 6 4 3 4 5 7 8 7 7
9 10 10 9 7 7 7 6 5 4 4 4 3 2 2 2 3 3 3 3 3 3 3 3 3 3 2 1 1 0 0 1 1 2 1 1 2 2 3 3 4 4 4 5 6 6 6 7 7 7 6 7 7 6 5 6 5 5 5 8 8 7
8 10 9 8 8 7 6 5 5 4 3 3 3 3 3 3 3 3 3 4 4 4 3 3 3 2 2 1 1 1 1 1 1 2 2 0 2 2 3 3 3 4 4 4 5 6 7 7 8 8 8 7 7 6 6 6 6 7 7 8 9 9
9 9 8 8 7 6 6 5 4 4 3 4 4 4 4 3 3 3 3 4 4 4 3 3 2 2 2 1 1 0 1 1 2 2 2 3 3 4 4 4 3 4 5 6 5 6 6 7 7 8 8 7 6 6 8 8 7 8 7 8 9 9
9 9 8 8 7 6 6 6 5 5 5 4 4 4 4 3 3 3 3 4 4 4 3 2 2 1 1 1 0 0 1 2 2 2 2 2 3 3 4 5 5 6 6 6 6 7 7 6 7 7 8 9 8 8 10 9 9 8 7 8 10 9
8 8 7 7 7 6 5 5 5 6 6 6 4 4 3 3 3 2 2 3 4 3 2 2 1 1 1 1 1 1 0 1 1 2 3 3 3 3 4 4 6 5 6 6 7 7 8 7 7 7 7 8 8 8 9 9 9 10 9 10 9 9
8 7 7 6 7 7 6 5 6 6 5 5 5 5 4 4 4 3 3 3 3 3 2 2 1 1 1 1 1 1 1 1 2 2 3 4 4 4 4 5 6 7 6 6 6 7 8 8 8 7 7 8 8 9 9 8 8 9 10 9 9 9
6 7 7 7 6 6 5 5 6 6 6 5 5 4 4 3 3 3 3 3 3 2 3 1 1 1 1 1 2 2 1 2 3 3 4 5 5 4 5 6 6 7 7 7 6 6 6 7 7 8 8 9 9 10 11 9 9 9 9 9 10 9
8 8 8 6 6 6 6 6 5 5 5 5 5 5 4 4 4 5 5 4 4 3 3 3 3 3 2 2 2 2 2 3 3 4 4 5 6 6 6 6 6 6 7 7 6 4 5 5 7 8 8 9 9 9 10 11 11 10 10 9 9 10
6 8 6 6 6 6 5 5 5 5 4 4 4 4 5 5 5 5 5 5 5 5 5 5 4 3 3 3 3 3 3 4 4 4 4 5 6 6 6 6 5 6 5 6 5 5 6 5 7 7 8 8 9 8 10 10 11 11 10 9 9 9
8 8 7 7 7 7 6 5 4 5 4 5 5 5 6 6 6 6 6 6 6 6 6 5 5 5 5 5 5 5 5 5 5 5 5 6 6 6 5 6 6 6 7 5 5 5 5 4 7 6 8 10 8 8 4 7 8 10 9 9 8 9
9 7 7 7 6 7 7 7 6 6 6 6 5 6 7 6 5 5 5 5 5 5 5 5 6 6 5 6 6 6 6 5 5 5 6 6 6 7 6 6 6 6 7 8 5 5 3 4 5 6 6 5 8 9 10 3 2 6 9 9 9 9
8 8 7 8 8 8 7 8 8 7 7 7 6 5 4 4 3 4 4 4 5 5 5 5 5 5 5 5 5 5 5 5 6 6 6 6 6 7 7 5 5 6 7 7 7 6 6 4 6 5 7 7 6 6 7 7 9 7 5 6 8 9
8 7 8 9 8 6 6 6 7 6 6 5 5 3 3 3 3 3 4 3 4 5 5 5 5 6 5 5 5 5 5 5 5 5 6 6 6 7 7 7 5 5 6 6 6 7 6 5 5 6 7 6 6 7 9 9 8 4 3 5 7 6
8 7 7 7 7 6 7 6 6 4 3 3 3 3 3 4 4 3 3 3 4 6 6 6 6 5 5 6 6 6 6 6 6 5 6 6 7 8 7 8 7 6 6 6 6 7 7 6 6 6 5 6 8 8 8 7 6 8 9 3 5 6
8 8 7 6 7 6 5 6 6 6 6 6 4 5 4 3 1 1 2 3 4 4 5 5 6 6 6 6 6 6 6 6 6 7 6 6 7 7 8 7 8 8 7 6 6 7 8 7 6 7 6 7 7 8 9 10 10 9 9 10 8 6
10 9 8 9 8 8 7 7 6 5 5 4 4 3 2 1 1 2 3 4 3 4 4 5 6 6 7 7 6 7 7 7 7 7 6 6 6 7 8 9 9 8 8 8 7 7 7 8 8 8 7 7 7 8 8 8 8 8 8 9 10 9
11 9 9 10 9 10 9 7 6 5 4 3 2 1 0 2 2 2 4 3 3 4 4 4 5 6 6 7 7 7 6 7 7 7 7 7 8 8 8 8 8 8 9 10 8 7 7 8 8 8 8 8 8 7 7 7 7 6 7 8 10 10
10 9 9 9 9 9 6 5 4 3 2 2 2 2 1 2 2 3 3 3 4 4 4 5 4 5 7 7 7 7 7 7 6 6 7 7 7 8 8 8 8 9 8 9 8 10 9 8 8 8 9 8 9 9 8 9 8 8 8 7 9 10
10 9 9 9 8 7 5 5 5 5 4 4 3 3 3 3 3 4 4 3 3 3 4 4 5 5 6 7 6 7 8 7 7 7 8 8 8 8 8 8 7 7 7 8 8 9 9 10 11 10 10 9 9 9 9 9 8 7 8 10 9 11
11 9 8 7 5 6 6 5 5 5 5 4 4 4 3 4 4 3 3 4 4 3 4 4 5 5 6 7 7 6 7 7 7 7 8 8 8 9 8 8 8 8 8 8 8 9 9 10 11 10 10 11 11 10 10 10 9 8 8 8 10 12
11 8 7 7 7 7 7 6 6 5 4 4 4 4 4 4 4 3 3 4 4 4 4 5 5 6 6 7 7 7 7 7 8 8 8 9 9 9 9 8 8 8 9 8 8 10 9 10 10 10 10 10 11 12 11 10 10 9 9 9 10 11
10 9 8 7 7 8 7 7 6 5 4 4 4 4 4 4 4 4 4 5 4 4 5 5 5 6 7 7 7 7 7 7 9 9 9 9 9 9 10 9 8 9 9 8 9 9 9 10 10 11 11 10 10 10 11 11 10 10 10 9 9 9
10 9 9 8 8 7 7 7 6 6 5 5 4 4 4 4 4 4 5 5 5 5 5 5 6 6 7 7 8 8 8 8 8 8 9 9 9 8 9 8 8 8 9 8 9 11 10 10 10 11 11 10 10 9 10 11 12 11 11 11 11 10
10 9 9 9 8 7 7 7 7 6 5 6 6 6 6 6 6 6 5 6 6 6 6 6 6 6 7 7 8 8 7 8 8 8 8 8 9 9 9 8 8 9 9 10 10 10 9 9 10 10 9 11 10 10 10 10 11 11 12 12 11 11
Wind_Direction
142 138 134 136 141 143 132 136 139 138 139 131 129 127 122 127 129 127 129 124 167 150 122 132 160 118 159 117 119 121 117 108 102 102 108 106 112 113 111 112 106 99 114 134 159 160 154 156 158 165 172 185 209 226 43 12 257 111 29 125 219 94
137 134 136 139 140 139 142 157 141 146 149 143 137 137 154 150 149 130 135 170 156 114 132 113 98 124 128 131 137 122 122 116 111 110 110 113 112 119 123 122 122 109 120 184 166 166 165 157 163 170 183 200 227 238 147 55 287 73 233 107 215 114
140 134 137 142 136 136 151 147 147 150 146 158 151 166 152 159 152 147 154 133 134 117 124 118 93 51 61 60 103 122 134 132 129 117 113 113 114 116 122 124 133 155 177 207 211 195 175 162 167 177 183 213 239 231 149 275 253 268 240 52 88 126
136 135 150 140 143 144 144 148 147 148 156 152 155 161 154 150 144 123 136 131 121 117 124 115 92 158 196 176 136 149 145 141 138 129 154 161 151 147 151 150 159 174 201 209 224 201 190 174 174 176 200 212 228 202 230 211 244 164 300 118 93 134
137 145 155 144 141 143 146 147 146 146 152 150 156 155 156 156 145 141 145 137 131 144 150 134 149 152 161 149 142 160 172 180 167 161 192 177 202 160 194 170 167 202 213 212 219 222 246 179 202 192 202 222 221 220 243 229 252 289 256 210 111 141
147 154 151 150 145 132 152 144 143 147 148 141 150 151 147 150 146 152 149 138 144 150 154 137 133 126 140 153 163 155 195 128 181 187 185 211 195 224 217 196 206 200 210 219 215 221 211 227 204 215 209 209 225 223 241 248 234 230 259 245 134 151
150 148 148 144 135 148 146 140 145 145 149 141 148 147 146 146 144 144 146 149 167 150 139 138 129 140 135 156 141 172 151 164 168 175 170 233 200 225 251 228 204 213 223 227 218 208 209 209 242 217 212 209 230 236 241 248 245 244 249 243 139 157
150 148 144 146 140 144 139 142 134 132 155 137 150 146 139 135 136 141 145 158 153 158 146 136 154 145 122 133 88 72 174 172 169 190 115 260 216 235 234 241 249 224 222 223 225 223 222 205 201 264 255 224 218 241 255 261 259 276 278 244 223 163
145 149 141 147 143 141 142 144 145 147 136 159 147 141 135 142 142 137 146 146 141 145 140 130 63 61 25 25 19 359 273 199 218 215 192 271 283 256 244 243 237 241 222 234 228 228 233 232 203 211 238 239 244 249 250 257 261 258 258 270 260 162
152 150 142 148 138 139 143 145 141 142 137 162 138 141 152 143 141 150 146 147 129 154 221 65 19 25 24 1 343 302 263 270 259 184 221 234 245 271 290 278 254 250 256 224 240 225 237 234 230 223 223 237 234 238 258 264 265 261 270 259 249 165
148 143 148 138 135 137 142 139 145 144 145 142 146 151 147 140 149 148 143 150 157 161 351 28 352 39 59 321 353 295 271 273 227 227 244 257 257 274 276 284 285 291 279 271 260 241 233 246 238 237 221 227 235 229 239 260 272 277 279 268 254 238
147 148 143 134 138 141 142 141 143 140 135 128 127 130 136 133 154 144 131 157 169 176 169 149 60 55 33 86 228 248 289 281 242 204 229 264 274 285 279 279 296 285 284 273 260 256 244 253 254 252 248 233 223 239 237 245 269 278 272 272 271 251
147 146 144 139 139 140 137 140 135 129 121 118 133 129 131 137 124 120 142 157 157 135 149 141 126 98 79 120 113 355 245 291 305 329 292 312 291 264 256 246 233 248 259 263 268 259 250 244 249 255 262 267 264 240 250 282 275 271 278 272 264 270
145 145 139 136 142 136 131 127 125 121 123 137 131 132 120 113 127 130 130 120 122 130 146 125 127 124 139 138 108 165 17 286 338 339 308 255 251 263 272 281 291 280 269 271 267 265 264 257 250 245 244 250 247 249 233 224 239 253 265 272 272 257
142 138 138 143 146 135 133 130 132 134 139 142 124 117 123 133 142 140 140 124 126 130 132 126 128 133 137 140 145 148 235 6 333 315 288 244 294 259 250 252 251 265 279 270 280 285 280 272 268 262 253 247 251 243 234 237 231 240 237 250 257 252
138 139 142 137 131 128 131 133 125 126 130 130 122 126 137 134 126 124 123 126 128 123 134 140 150 149 161 149 141 142 116 56 333 293 319 325 296 289 296 281 269 265 267 262 253 256 260 269 268 265 266 261 253 252 262 257 246 241 242 249 251 250
142 141 138 133 133 136 138 137 141 122 114 125 124 124 123 129 127 124 125 115 114 130 142 135 128 135 129 124 120 42 63 41 338 324 294 301 296 306 299 298 291 281 275 274 267 261 260 255 257 262 263 259 254 254 254 252 247 242 234 239 245 250
142 146 145 144 140 137 137 137 131 123 133 124 120 118 123 127 115 111 119 112 121 124 125 111 93 76 29 5 1 1 326 139 272 310 310 295 294 292 294 297 295 287 283 283 280 273 265 261 264 266 259 257 264 259 253 252 250 248 242 239 240 244
149 146 145 143 144 141 145 133 127 128 134 140 140 131 139 137 132 135 113 106 112 115 105 79 98 84 1 293 277 284 324 322 308 314 311 303 308 309 303 298 291 293 283 277 288 289 290 290 281 271 265 257 253 253 257 258 256 251 245 243 241 244
150 153 150 155 157 156 153 150 141 144 143 134 127 114 113 103 95 92 83 78 79 73 80 69 24 20 339 333 315 321 340 317 306 295 304 311 314 313 307 301 299 298 296 288 275 277 285 293 290 282 272 264 255 255 253 249 246 247 248 246 244 242
163 157 155 161 161 157 151 140 138 131 124 120 114 113 102 84 76 65 61 64 65 63 58 59 23 23 356 342 322 327 319 309 297 311 319 308 313 316 310 304 301 301 296 298 298 290 282 281 293 287 276 266 263 248 243 245 245 242 242 241 242 240
167 159 169 163 150 151 142 138 138 129 117 104 113 106 93 81 75 70 65 66 57 52 48 42 31 25 358 335 342 327 319 315 318 331 314 312 312 314 310 310 303 301 297 295 294 304 303 307 281 293 306 300 283 266 238 235 240 245 244 237 237 240
159 155 157 157 150 135 131 119 126 115 112 100 74 77 82 75 72 70 58 52 48 42 36 32 28 25 1 358 346 336 334 335 332 329 318 317 318 321 320 319 324 318 314 305 301 293 285 281 300 304 297 295 294 299 254 222 236 244 234 236 237 239
149 149 141 127 115 112 110 111 102 106 105 102 100 97 97 94 85 79 71 55 51 45 38 30 20 18 15 4 357 345 339 339 335 336 327 322 323 321 326 329 333 323 316 314 321 311 305 296 290 296 292 293 307 304 294 273 306 238 225 232 231 237
142 143 134 127 120 117 118 111 101 101 107 112 120 117 114 101 93 77 69 53 43 28 27 22 13 17 16 4 359 357 347 343 342 339 334 326 324 326 327 324 320 314 313 316 313 313 304 289 279 274 283 294 286 275 292 326 329 305 233 226 228 234
134 131 131 126 130 140 138 130 133 129 126 125 105 88 67 47 81 61 50 51 37 13 14 18 16 14 14 12 8 4 3 348 353 351 346 331 328 326 323 324 335 316 312 310 309 304 302 297 285 280 273 270 264 278 303 315 308 311 335 268 270 249
123 121 118 122 127 127 119 110 101 98 100 105 111 93 65 68 53 52 47 23 29 30 16 25 26 16 18 21 15 16 13 6 2 354 349 343 341 335 332 333 331 326 312 307 301 299 301 305 298 263 261 272 279 280 282 288 297 305 299 285 256 266
103 96 91 98 92 88 96 86 83 78 77 86 82 92 103 99 114 70 50 22 21 31 23 27 28 29 28 23 16 12 12 12 7 10 1 3 350 346 339 336 339 333 327 314 306 300 305 301 297 300 301 287 278 275 272 272 273 282 288 289 279 244
93 93 89 82 80 75 75 84 93 101 98 85 86 114 148 161 121 44 51 42 27 27 41 41 33 33 31 31 24 20 19 19 11 7 356 349 344 342 342 336 336 334 330 318 311 303 293 300 299 298 301 288 287 283 285 280 277 266 274 283 281 277
96 93 89 80 76 75 78 77 77 79 101 130 166 165 3 71 44 8 50 29 46 46 29 45 45 34 28 26 23 20 20 19 12 7 360 354 352 349 348 340 339 335 330 325 317 308 311 305 299 300 298 297 293 290 280 272 263 262 259 250 277 289
90 89 81 73 78 76 72 67 75 70 59 60 54 47 81 57 20 32 26 33 45 49 37 34 27 30 25 10 12 15 7 5 360 353 351 344 344 341 337 333 330 328 323 324 318 323 312 301 301 301 298 296 292 292 293 290 296 295 288 283 284 278
79 77 76 75 77 78 73 62 54 53 55 42 37 38 35 48 30 45 35 37 35 33 32 36 21 22 21 1 5 9 359 351 354 350 350 345 339 337 333 331 325 326 327 331 333 331 324 320 322 313 306 303 299 296 290 287 290 287 288 286 284 287
94 78 83 91 87 67 66 67 68 71 71 59 59 63 64 52 43 47 46 43 40 37 35 32 27 19 18 4 11 11 5 6 4 4 358 352 346 343 342 330 330 329 332 326 326 330 321 321 322 319 321 317 307 302 297 298 293 288 283 280 279 283
100 95 90 83 77 78 73 73 66 63 67 69 71 67 67 65 54 57 54 55 45 40 44 38 33 31 18 13 15 14 15 360 358 353 349 345 344 338 340 331 328 334 332 329 330 328 319 322 319 319 319 316 314 311 307 302 296 288 285 281 280 279
100 98 94 90 88 79 75 67 67 67 71 82 80 79 72 69 67 61 62 61 51 48 46 46 40 36 24 23 21 21 19 10 7 3 1 358 353 353 354 342 346 344 340 342 337 330 322 321 319 323 324 317 316 311 311 313 312 303 291 281 279 288
101 97 93 88 79 78 76 71 66 69 68 72 81 81 78 76 76 68 66 64 62 54 49 47 45 35 31 25 25 18 21 20 12 10 6 3 360 360 355 355 355 353 350 352 339 338 334 330 327 327 320 323 315 309 311 307 309 308 301 296 290 280
101 92 84 78 81 79 78 76 69 68 72 75 78 82 85 85 82 79 76 70 65 58 54 48 45 38 34 34 32 27 27 21 19 13 5 6 1 3 360 0 358 354 354 349 345 344 344 343 339 332 330 327 319 313 308 313 308 308 311 310 302 298